Time,TemperatureF,DewpointF,PressureIn,WindDirection,WindDirectionDegrees,WindSpeedMPH,WindSpeedGustMPH,Humidity,HourlyPrecipIn,Conditions,Clouds,dailyrainin,SoftwareType,DateUTC
2013-10-15 00:02:00,59.0,49.1,30.38,NE,45,2.0,2.0,69,0.00,,,0.00,meteohub,2013-10-14 21:02:00,
2013-10-15 00:08:00,59.0,49.1,30.38,East,90,0.0,2.0,69,0.00,,,0.00,meteohub,2013-10-14 21:08:00,
2013-10-15 00:12:00,58.8,48.9,30.38,NE,45,0.0,3.0,69,0.00,,,0.00,meteohub,2013-10-14 21:12:00,
2013-10-15 00:17:00,58.8,48.9,30.38,NE,45,2.0,4.0,69,0.00,,,0.00,meteohub,2013-10-14 21:17:00,
2013-10-15 00:23:00,58.8,49.3,30.38,NE,45,0.0,4.0,70,0.00,,,0.00,meteohub,2013-10-14 21:23:00,
2013-10-15 00:29:00,58.8,48.9,30.38,NE,45,0.0,4.0,69,0.00,,,0.00,meteohub,2013-10-14 21:29:00,
2013-10-15 00:35:00,58.6,49.1,30.35,NE,45,1.0,3.0,70,0.00,,,0.00,meteohub,2013-10-14 21:35:00,
2013-10-15 00:41:00,58.6,49.1,30.35,East,90,2.0,3.0,70,0.00,,,0.00,meteohub,2013-10-14 21:41:00,
2013-10-15 00:47:00,58.6,49.1,30.35,NE,45,0.0,3.0,70,0.00,,,0.00,meteohub,2013-10-14 21:47:00,
2013-10-15 00:53:00,58.6,49.1,30.38,SE,135,0.0,2.0,70,0.00,,,0.00,meteohub,2013-10-14 21:53:00,
2013-10-15 00:59:00,58.6,49.1,30.38,NE,45,0.0,2.0,70,0.00,,,0.00,meteohub,2013-10-14 21:59:00,
2013-10-15 01:05:00,58.6,49.1,30.35,NE,45,1.0,4.0,70,0.00,,,0.00,meteohub,2013-10-14 22:05:00,
2013-10-15 01:11:00,58.6,49.1,30.35,NE,45,1.0,4.0,70,0.00,,,0.00,meteohub,2013-10-14 22:11:00,
2013-10-15 01:17:00,58.6,49.1,30.38,East,90,0.0,3.0,70,0.00,,,0.00,meteohub,2013-10-14 22:17:00,
2013-10-15 01:23:00,58.6,49.1,30.38,SW,225,0.0,3.0,70,0.00,,,0.00,meteohub,2013-10-14 22:23:00,
2013-10-15 01:30:00,58.5,48.6,30.38,SW,225,0.0,2.0,69,0.00,,,0.00,meteohub,2013-10-14 22:30:00,
2013-10-15 01:36:00,58.3,48.7,30.38,SW,225,0.0,3.0,70,0.00,,,0.00,meteohub,2013-10-14 22:36:00,
2013-10-15 01:42:00,58.3,48.7,30.38,SW,225,0.0,3.0,70,0.00,,,0.00,meteohub,2013-10-14 22:42:00,
2013-10-15 01:48:00,58.3,48.7,30.38,SW,225,0.0,2.0,70,0.00,,,0.00,meteohub,2013-10-14 22:48:00,
2013-10-15 01:54:00,58.1,48.6,30.38,SW,225,1.0,2.0,70,0.00,,,0.00,meteohub,2013-10-14 22:54:00,
2013-10-15 02:00:00,57.9,48.4,30.38,SW,225,0.0,2.0,70,0.00,,,0.00,meteohub,2013-10-14 23:00:00,
2013-10-15 02:06:00,57.7,48.6,30.38,SW,225,0.0,2.0,71,0.00,,,0.00,meteohub,2013-10-14 23:06:00,
2013-10-15 02:12:00,57.7,48.6,30.38,NNE,22,0.0,2.0,71,0.00,,,0.00,meteohub,2013-10-14 23:12:00,
2013-10-15 02:17:00,57.7,48.6,30.38,NW,315,0.0,1.0,71,0.00,,,0.00,meteohub,2013-10-14 23:17:00,
2013-10-15 02:22:00,57.6,48.4,30.38,North,0,0.0,1.0,71,0.00,,,0.00,meteohub,2013-10-14 23:22:00,
2013-10-15 02:27:00,57.6,48.4,30.38,NE,45,0.0,1.0,71,0.00,,,0.00,meteohub,2013-10-14 23:27:00,
2013-10-15 02:33:00,57.4,48.6,30.38,NE,45,0.0,3.0,72,0.00,,,0.00,meteohub,2013-10-14 23:33:00,
2013-10-15 02:39:00,57.6,48.7,30.38,NE,45,0.0,4.0,72,0.00,,,0.00,meteohub,2013-10-14 23:39:00,
2013-10-15 02:45:00,57.6,48.7,30.38,North,0,0.0,2.0,72,0.00,,,0.00,meteohub,2013-10-14 23:45:00,
2013-10-15 02:51:00,57.4,48.6,30.38,NE,45,0.0,2.0,72,0.00,,,0.00,meteohub,2013-10-14 23:51:00,
2013-10-15 02:57:00,57.4,48.6,30.38,NE,45,0.0,2.0,72,0.00,,,0.00,meteohub,2013-10-14 23:57:00,
2013-10-15 03:04:00,57.2,48.4,30.38,NE,45,0.0,2.0,72,0.00,,,0.00,meteohub,2013-10-15 00:04:00,
2013-10-15 03:10:00,57.2,48.4,30.38,NE,45,0.0,3.0,72,0.00,,,0.00,meteohub,2013-10-15 00:10:00,
2013-10-15 03:16:00,57.0,48.2,30.38,NE,45,0.0,1.0,72,0.00,,,0.00,meteohub,2013-10-15 00:16:00,
2013-10-15 03:22:00,57.0,48.2,30.38,NE,45,0.0,1.0,72,0.00,,,0.00,meteohub,2013-10-15 00:22:00,
2013-10-15 03:27:00,57.0,48.2,30.38,NE,45,0.0,1.0,72,0.00,,,0.00,meteohub,2013-10-15 00:27:00,
2013-10-15 03:33:00,57.0,48.6,30.38,NE,45,0.0,1.0,73,0.00,,,0.00,meteohub,2013-10-15 00:33:00,
2013-10-15 03:39:00,57.0,48.6,30.38,NE,45,0.0,0.0,73,0.00,,,0.00,meteohub,2013-10-15 00:39:00,
2013-10-15 03:45:00,57.0,48.6,30.38,NE,45,0.0,0.0,73,0.00,,,0.00,meteohub,2013-10-15 00:45:00,
2013-10-15 03:51:00,57.0,48.6,30.35,NE,45,0.0,0.0,73,0.00,,,0.00,meteohub,2013-10-15 00:51:00,
2013-10-15 03:57:00,57.0,48.6,30.35,NE,45,0.0,0.0,73,0.00,,,0.00,meteohub,2013-10-15 00:57:00,
2013-10-15 04:03:00,56.8,48.7,30.35,East,90,0.0,2.0,74,0.00,,,0.00,meteohub,2013-10-15 01:03:00,
2013-10-15 04:09:00,57.0,48.9,30.35,South,180,0.0,2.0,74,0.00,,,0.00,meteohub,2013-10-15 01:09:00,
2013-10-15 04:15:00,56.8,48.7,30.35,SW,225,0.0,1.0,74,0.00,,,0.00,meteohub,2013-10-15 01:15:00,
2013-10-15 04:21:00,56.7,48.6,30.38,SW,225,0.0,1.0,74,0.00,,,0.00,meteohub,2013-10-15 01:21:00,
2013-10-15 04:27:00,56.7,48.6,30.38,SW,225,0.0,1.0,74,0.00,,,0.00,meteohub,2013-10-15 01:27:00,
2013-10-15 04:33:00,56.8,49.1,30.35,SW,225,0.0,1.0,75,0.00,,,0.00,meteohub,2013-10-15 01:33:00,
2013-10-15 04:39:00,56.8,49.5,30.35,SW,225,0.0,1.0,76,0.00,,,0.00,meteohub,2013-10-15 01:39:00,
2013-10-15 04:46:00,57.0,49.6,30.35,SSW,202,0.0,2.0,76,0.00,,,0.00,meteohub,2013-10-15 01:46:00,
2013-10-15 04:52:00,57.2,49.8,30.35,SW,225,0.0,2.0,76,0.00,,,0.00,meteohub,2013-10-15 01:52:00,
2013-10-15 04:58:00,57.2,49.8,30.35,SW,225,0.0,2.0,76,0.00,,,0.00,meteohub,2013-10-15 01:58:00,
2013-10-15 05:04:00,57.2,49.8,30.35,SW,225,0.0,2.0,76,0.00,,,0.00,meteohub,2013-10-15 02:04:00,
2013-10-15 05:10:00,57.2,49.8,30.35,SW,225,0.0,1.0,76,0.00,,,0.00,meteohub,2013-10-15 02:10:00,
2013-10-15 05:16:00,57.0,49.6,30.35,SW,225,0.0,0.0,76,0.00,,,0.00,meteohub,2013-10-15 02:16:00,
2013-10-15 05:22:00,57.0,49.6,30.35,SW,225,0.0,1.0,76,0.00,,,0.00,meteohub,2013-10-15 02:22:00,
2013-10-15 05:28:00,57.0,49.6,30.35,South,180,0.0,1.0,76,0.00,,,0.00,meteohub,2013-10-15 02:28:00,
2013-10-15 05:34:00,57.0,49.8,30.35,NE,45,3.0,3.0,77,0.00,,,0.00,meteohub,2013-10-15 02:34:00,
2013-10-15 05:40:00,57.0,49.8,30.35,SSE,158,0.0,4.0,77,0.00,,,0.00,meteohub,2013-10-15 02:40:00,
2013-10-15 05:46:00,57.0,50.2,30.35,South,180,0.0,4.0,78,0.00,,,0.00,meteohub,2013-10-15 02:46:00,
2013-10-15 05:52:00,57.0,50.2,30.35,SSW,202,0.0,4.0,78,0.00,,,0.00,meteohub,2013-10-15 02:52:00,
2013-10-15 05:57:00,57.0,50.2,30.35,SW,225,0.0,4.0,78,0.00,,,0.00,meteohub,2013-10-15 02:57:00,
2013-10-15 06:03:00,57.2,50.4,30.35,South,180,0.0,3.0,78,0.00,,,0.00,meteohub,2013-10-15 03:03:00,
2013-10-15 06:09:00,57.2,50.4,30.35,East,90,1.0,3.0,78,0.00,,,0.00,meteohub,2013-10-15 03:09:00,
2013-10-15 06:15:00,57.2,50.4,30.35,East,90,1.0,2.0,78,0.00,,,0.00,meteohub,2013-10-15 03:15:00,
2013-10-15 06:21:00,57.2,50.4,30.35,NE,45,1.0,3.0,78,0.00,,,0.00,meteohub,2013-10-15 03:21:00,
2013-10-15 06:27:00,57.2,50.4,30.35,NE,45,2.0,4.0,78,0.00,,,0.00,meteohub,2013-10-15 03:27:00,
2013-10-15 06:33:00,57.0,50.2,30.35,SW,225,0.0,4.0,78,0.00,,,0.00,meteohub,2013-10-15 03:33:00,
2013-10-15 06:39:00,57.0,50.2,30.35,SE,135,0.0,4.0,78,0.00,,,0.00,meteohub,2013-10-15 03:39:00,
2013-10-15 06:45:00,57.0,50.2,30.35,South,180,0.0,2.0,78,0.00,,,0.00,meteohub,2013-10-15 03:45:00,
2013-10-15 06:51:00,56.8,50.0,30.35,South,180,0.0,1.0,78,0.00,,,0.00,meteohub,2013-10-15 03:51:00,
2013-10-15 06:58:00,56.8,50.0,30.35,South,180,0.0,1.0,78,0.00,,,0.00,meteohub,2013-10-15 03:58:00,
2013-10-15 07:01:00,56.7,49.8,30.35,SSW,202,0.0,2.0,78,0.00,,,0.00,meteohub,2013-10-15 04:01:00,
2013-10-15 07:02:00,56.7,49.8,30.35,SSW,202,0.0,2.0,78,0.00,,,0.00,meteohub,2013-10-15 04:02:00,
2013-10-15 07:05:00,56.7,49.8,30.35,SSW,202,0.0,2.0,78,0.00,,,0.00,meteohub,2013-10-15 04:05:00,
2013-10-15 07:08:00,56.7,49.8,30.35,SSW,202,0.0,2.0,78,0.00,,,0.00,meteohub,2013-10-15 04:08:00,
2013-10-15 07:12:00,56.7,49.8,30.35,SSW,202,0.0,1.0,78,0.00,,,0.00,meteohub,2013-10-15 04:12:00,
2013-10-15 07:17:00,56.5,49.8,30.35,South,180,0.0,0.0,78,0.00,,,0.00,meteohub,2013-10-15 04:17:00,
2013-10-15 07:23:00,56.5,49.8,30.35,NE,45,0.0,0.0,78,0.00,,,0.00,meteohub,2013-10-15 04:23:00,
2013-10-15 07:29:00,56.5,49.8,30.35,NE,45,1.0,0.0,78,0.00,,,0.00,meteohub,2013-10-15 04:29:00,
2013-10-15 07:35:00,56.5,49.8,30.35,ENE,68,0.0,2.0,78,0.00,,,0.00,meteohub,2013-10-15 04:35:00,
2013-10-15 07:42:00,56.5,49.8,30.35,NE,45,0.0,4.0,78,0.00,,,0.00,meteohub,2013-10-15 04:42:00,
2013-10-15 07:48:00,56.7,49.8,30.35,East,90,2.0,4.0,78,0.00,,,0.00,meteohub,2013-10-15 04:48:00,
2013-10-15 07:54:00,56.7,49.8,30.35,NE,45,0.0,4.0,78,0.00,,,0.00,meteohub,2013-10-15 04:54:00,
2013-10-15 08:00:00,56.7,49.8,30.35,NE,45,0.0,3.0,78,0.00,,,0.00,meteohub,2013-10-15 05:00:00,
2013-10-15 08:06:00,56.8,50.0,30.35,East,90,0.0,3.0,78,0.00,,,0.00,meteohub,2013-10-15 05:06:00,
2013-10-15 08:12:00,57.0,50.2,30.35,East,90,0.0,3.0,78,0.00,,,0.00,meteohub,2013-10-15 05:12:00,
2013-10-15 08:18:00,57.0,50.2,30.35,East,90,0.0,3.0,78,0.00,,,0.00,meteohub,2013-10-15 05:18:00,
2013-10-15 08:24:00,57.2,50.4,30.35,East,90,0.0,2.0,78,0.00,,,0.00,meteohub,2013-10-15 05:24:00,
2013-10-15 08:30:00,57.4,50.5,30.35,East,90,0.0,0.0,78,0.00,,,0.00,meteohub,2013-10-15 05:30:00,
2013-10-15 08:36:00,57.6,50.4,30.35,East,90,0.0,0.0,77,0.00,,,0.00,meteohub,2013-10-15 05:36:00,
2013-10-15 08:42:00,57.7,50.5,30.35,SE,135,0.0,0.0,77,0.00,,,0.00,meteohub,2013-10-15 05:42:00,
2013-10-15 08:47:00,57.9,50.7,30.35,SE,135,0.0,0.0,77,0.00,,,0.00,meteohub,2013-10-15 05:47:00,
2013-10-15 08:53:00,58.3,51.1,30.35,SE,135,0.0,0.0,77,0.00,,,0.00,meteohub,2013-10-15 05:53:00,
2013-10-15 08:59:00,59.2,51.6,30.35,South,180,0.0,0.0,76,0.00,,,0.00,meteohub,2013-10-15 05:59:00,
2013-10-15 09:05:00,60.6,53.1,30.35,South,180,0.0,0.0,76,0.00,,,0.00,meteohub,2013-10-15 06:05:00,
2013-10-15 23:16:00,61.7,53.2,30.35,South,180,0.0,-999.0,74,-99.99,,,-99.99,meteohub,2013-10-15 20:16:00,
2013-10-15 23:22:00,62.2,46.6,30.17,SW,225,0.0,0.0,56,0.00,,,0.00,meteohub,2013-10-15 20:22:00,
2013-10-15 23:28:00,62.2,46.9,30.17,SW,225,0.0,0.0,57,0.00,,,0.00,meteohub,2013-10-15 20:28:00,
2013-10-15 23:34:00,62.2,46.9,30.17,SW,225,0.0,0.0,57,0.00,,,0.00,meteohub,2013-10-15 20:34:00,
2013-10-15 23:40:00,62.2,46.9,30.17,SW,225,0.0,0.0,57,0.00,,,0.00,meteohub,2013-10-15 20:40:00,
2013-10-15 23:46:00,62.2,46.9,30.17,SW,225,0.0,0.0,57,0.00,,,0.00,meteohub,2013-10-15 20:46:00,
2013-10-15 23:52:00,62.2,46.9,30.17,SW,225,0.0,0.0,57,0.00,,,0.00,meteohub,2013-10-15 20:52:00,
2013-10-15 23:58:00,62.4,46.8,30.17,NE,45,0.0,0.0,56,0.00,,,0.00,meteohub,2013-10-15 20:58:00,